Flag for Maldives Weather past 2 weeks in Male, Maldives

Now
82 °F

Passing clouds.


Feels Like: 91 °F
Forecast: 77 / 87 °F
Wind: No wind

Location: Male Airport

Current Time: Oct 26, 2014 at 2:15:57 AM

Latest Report: Oct 26, 2014 at 1:00 AM


Visibility: N/A

Pressure: 29.86 "Hg

Humidity: 84%

Dew point: 77 °F

Location of MaleLocation

Historic Weather in Male — Graph

°F

Male temperature yesterday

Maximum temperature yesterday: 88 °F (at 1:00 PM)
Minimum temperature yesterday: 82 °F (at 12:00 AM)
Average temperature yesterday: 84 °F

Past Weeks' High & Low Weather Summary

 TemperatureHumidityPressure
High90 °F (Oct 21, 11:00 AM)100% (Oct 17, 3:00 AM)29.95 "Hg (Oct 17, 3:00 AM)
Low75 °F (Oct 17, 3:00 AM)62% (Oct 19, 11:00 AM)29.74 "Hg (Oct 21, 2:00 AM)
Average83 °F79%29.84 "Hg
* Reported Oct 11 1:00 AM — Oct 26 1:00 AM, Male, Weather by CustomWeather, © 2014

Note: Actual official high and low records may vary slightly from our data, if they occured in-between our weather recording intervals... More about our weather records

Advertising

Male weather history for previous 24 hours

 ConditionsComfort  
Time TempWeatherWind HumidityBarometerVisibility
1:00 AM
Oct 26
82 °FPassing clouds.No wind84%29.86 "HgN/A
12:00 AM82 °FPassing clouds.No wind79%29.89 "HgN/A
11:00 PM
Oct 25
82 °FPassing clouds.No wind79%29.89 "HgN/A
10:00 PM84 °FPassing clouds.5 mph79%29.89 "HgN/A
9:00 PM84 °FPassing clouds.No wind79%29.89 "HgN/A
8:00 PM84 °FPassing clouds.2 mph79%29.86 "HgN/A
7:00 PM84 °FPassing clouds.3 mph79%29.83 "HgN/A
6:00 PM84 °FPassing clouds.5 mph79%29.80 "HgN/A
5:00 PM84 °FPartly sunny.5 mph79%29.80 "HgN/A
4:00 PM86 °FPartly sunny.6 mph70%29.80 "HgN/A
3:00 PM88 °FPartly sunny.6 mph66%29.80 "HgN/A
2:00 PM86 °FPartly sunny.5 mph70%29.83 "HgN/A
1:00 PM88 °FPartly sunny.3 mph66%29.83 "HgN/A
12:00 PM86 °FScattered clouds.7 mph75%29.86 "HgN/A
11:00 AM86 °FScattered clouds.3 mph75%29.89 "HgN/A
10:00 AM86 °FPartly sunny.No wind75%29.92 "HgN/A
9:00 AM86 °FScattered clouds.3 mph75%29.92 "HgN/A
8:00 AM84 °FScattered clouds.5 mph79%29.89 "HgN/A
7:00 AM84 °FPartly sunny.5 mph79%29.89 "HgN/A
6:00 AM82 °FPartly sunny.5 mph84%29.86 "HgN/A
5:00 AM82 °FPartly cloudy.6 mph79%29.83 "HgN/A
4:00 AM82 °FSprinkles. Partly cloudy.6 mph79%29.83 "HgN/A
3:00 AM82 °FPassing clouds.6 mph79%29.83 "HgN/A
2:00 AM82 °FPassing clouds.5 mph84%29.83 "HgN/A
Weather by CustomWeather, © 2014

See weather overviewHow to use our weather pages